Voltar ao catálogo

STARLINK-37457

AtivoComunicaçõesVLEO
NORAD 100294·PAYLOAD·🇺🇸 United States

Lançado Aug 11, 2026 de Cape Canaveral Space Force Station

Loading…

Próximas Passagens (próximas 24 horas)

TLE

EnvelhecendoSource: Space-Track

Época: Sep 12, 2026, 20:05 UTC

1 A0294U 26183Y   26255.83721638 -.00310081  00000-0 -28436-2 0  9993
2 A0294  53.1589 294.8936 0001986   9.5963 350.5092 15.68011430  5104

Acompanhe STARLINK-37457 em tempo real com AllMySat

Download on the App Store